Regional Weather Roundup
Issued by NWS

Home | Current Version | Previous Version | Graphics & Text | Print | Product List | Glossary On
Versions: 1 2 3 4 5 6 7 8 9 10 11 12 13 14 15 16 17 18 19 20 21 22 23 24 25 26 27 28 29 30 31 32 33 34 35 36 37 38 39 40 41 42 43 44 45 46 47 48 49 50
000
ASUS43 KIND 042159
RWRIN

WEATHER ROUNDUP FOR INDIANA
NATIONAL WEATHER SERVICE INDIANAPOLIS IN
500 PM EST SUN DEC 04 2016

NOTE: "FAIR" INDICATES FEW OR NO CLOUDS BELOW 12,000 FEET WITH NO
SIGNIFICANT WEATHER AND/OR OBSTRUCTIONS TO VISIBILITY.

* - STATION DOES NOT REPORT WEATHER SUCH AS PRECIPITATION OR FOG.

+ - STATION NOT QUALITY CONTROLLED BY THE NATIONAL WEATHER SERVICE.
    USE DATA WITH CAUTION...ESPECIALLY DEWPOINT AND RELATIVE
    HUMIDITY OBSERVATIONS.

INZ001>003-010>013-019-020-042300-
NORTHWEST INDIANA

CITY           SKY/WX    TMP DP  RH WIND       PRES   REMARKS
GARY /AIRPORT/ LGT SNOW N/A N/A N/A CALM      29.89F VSB 3/4

$$

LMZ046-743>745-042300-
SOUTHERN LAKE MICHIGAN

STATION/POSITION TIME  TEMP    WIND        PRES    WAVE
                       AIR SEA DIR/SP/G            HT
                 (UTC) (F)     (DEG/KT/KT) (MB)    (FT)
BURNS HARBOR     2140   33      80/  8/  9 1012.5F

$$

INZ004-005-014>016-021>024-042300-
NORTH CENTRAL INDIANA

CITY           SKY/WX    TMP DP  RH WIND       PRES   REMARKS
GOSHEN         SNOW      33  30  88 E10       29.89F VSB 1/2 WCI  25
SOUTH BEND     SNOW      32  31  96 E8        29.89F VSB 1/2 WCI  25

$$

INZ006>009-017-018-025>027-042300-
NORTHEAST INDIANA

CITY           SKY/WX    TMP DP  RH WIND       PRES   REMARKS
ANGOLA *+      CLOUDY    30  30 100 E10       29.91F WCI  21
FORT WAYNE     SNOW      33  31  92 E9        29.92F VSB 1/2 WCI  25
KENDALLVILLE + SNOW      32  32  99 E7        29.91F VSB 1/2 WCI  26

$$

INZ028-029-035-036-043>045-051>053-042300-
WEST CENTRAL INDIANA

CITY           SKY/WX    TMP DP  RH WIND       PRES   REMARKS
CRAWFORDSVL +  LGT SNOW  36  36 100 E6        29.86F
GREENCASTLE +  LGT RAIN  37  37 100 SE7       29.87F
LAFAYETTE      SNOW      31  31 100 E6        29.88F VSB 1/2 WCI  25
TERRE HAUTE    LGT RAIN  41  39  93 S6        29.89F

$$

INZ030>032-037>040-046>048-054>057-064-065-042300-
CENTRAL INDIANA

CITY           SKY/WX    TMP DP  RH WIND       PRES   REMARKS
COLUMBUS       LGT RAIN  39  39 100 SE5       29.91S FOG
GREENWOOD *+   CLOUDY    39  39  99 SE6       29.90F
INDIANAPOLIS   LGT RAIN  39  38  96 SE9       29.88F VSB 1
-EAGLE CREEK   LGT RAIN  39  37  92 CALM      29.89S FOG
KOKOMO +       LGT SNOW  33  32  96 E10       29.90F VSB 1   WCI  25
SHELBYVILLE    LGT RAIN  40  37  89 SE7       29.89F FOG

$$

INZ033-034-041-042-049-050-058-059-042300-
EAST CENTRAL INDIANA

CITY           SKY/WX    TMP DP  RH WIND       PRES   REMARKS
MUNCIE         LGT SNOW  35  33  92 E7        29.90F FOG     WCI  29

$$

INZ060-061-067>069-081>083-085>088-042300-
SOUTHWEST INDIANA

CITY           SKY/WX    TMP DP  RH WIND       PRES   REMARKS
EVANSVILLE     LGT RAIN  45  42  89 SW8       29.93S FOG
HUNTINGBURG *+ LGT RAIN  44  43  96 SW8       29.92F FOG

$$

INZ062-063-066-070>080-084-089>092-042300-
SOUTH CENTRAL AND SOUTHEAST INDIANA

CITY           SKY/WX    TMP DP  RH WIND       PRES   REMARKS
BLOOMINGTON    RAIN      42  40  92 S3        29.89S FOG
MADISON *+     CLOUDY    43  41  93 S3        29.93S
SEYMOUR +      DRIZZLE   45  43  93 CALM      29.92

$$





USA.gov is the U.S. government's official web portal to all federal, state and local government web resources and services.